Flag for Dominican Republic Weather past 2 weeks in Santiago de los Caballeros, Dominican Republic

Now
84 °F

Passing clouds.


Feels Like: 92 °F
Forecast: N/A
Wind: 17 mph from East

Location: Santiago

Current Time: Jul 24, 2014 at 7:49:58 PM

Latest Report: Jul 24, 2014 at 7:00 PM


Visibility: N/A

Pressure: 30.01 "Hg

Humidity: 74%

Dew point: 75 °F

Location of Santiago de los CaballerosLocation

Historic Weather in Santiago de los Caballeros — Graph

°F

Santiago de los Caballeros temperature yesterday

Maximum temperature yesterday: 93 °F (at 4:00 PM)
Minimum temperature yesterday: 75 °F (at 12:00 AM)
Average temperature yesterday: 84 °F

Past Weeks' High & Low Weather Summary

 TemperatureHumidityPressure
High93 °F (Jul 11, 3:00 PM)100% (Jul 11, 4:00 AM)30.12 "Hg (Jul 11, 4:00 AM)
Low72 °F (Jul 11, 4:00 AM)41% (Jul 13, 3:00 PM)29.86 "Hg (Jul 12, 4:00 AM)
Average82 °F78%30.03 "Hg
* Reported Jul 9 7:00 PM — Jul 24 7:00 PM, Santiago de los Caballeros, Weather by CustomWeather, © 2014

Note: Actual official high and low records may vary slightly from our data, if they occured in-between our weather recording intervals... More about our weather records

Advertising

Santiago de los Caballeros weather history for previous 24 hours

 ConditionsComfort  
Time TempWeatherWind HumidityBarometerVisibility
7:00 PM
Jul 24
84 °FPassing clouds.17 mph74%30.01 "HgN/A
6:00 PM88 °FPassing clouds.16 mph66%29.98 "HgN/A
5:00 PM91 °FPassing clouds.14 mph59%29.98 "HgN/A
4:00 PM91 °FScattered clouds.15 mph59%29.98 "HgN/A
3:00 PM91 °FScattered clouds.15 mph59%30.01 "HgN/A
2:00 PM91 °FScattered clouds.12 mph59%30.01 "HgN/A
1:00 PM91 °FScattered clouds.12 mph59%30.04 "HgN/A
12:00 PM88 °FScattered clouds.14 mph70%30.07 "HgN/A
11:00 AM88 °FScattered clouds.12 mph70%30.07 "HgN/A
10:00 AM84 °FScattered clouds.9 mph74%30.07 "HgN/A
9:00 AM81 °FScattered clouds.7 mph84%30.07 "HgN/A
8:00 AM79 °FScattered clouds.7 mph89%30.04 "HgN/A
7:00 AM75 °FScattered clouds.6 mph94%30.04 "HgN/A
6:00 AM75 °FPassing clouds.6 mph94%30.01 "HgN/A
5:00 AM75 °FPassing clouds.7 mph100%30.01 "HgN/A
4:00 AM77 °FPassing clouds.7 mph94%30.01 "HgN/A
3:00 AM77 °FPassing clouds.8 mph94%30.04 "HgN/A
2:00 AM77 °FPassing clouds.9 mph94%30.04 "HgN/A
1:00 AM79 °FPassing clouds.7 mph84%30.07 "HgN/A
12:00 AM81 °FPassing clouds.8 mph84%30.07 "HgN/A
11:00 PM
Jul 23
81 °FPassing clouds.12 mph84%30.07 "HgN/A
10:00 PM81 °FPassing clouds.8 mph79%30.04 "HgN/A
9:00 PM81 °FPassing clouds.12 mph79%30.01 "HgN/A
8:00 PM84 °FPassing clouds.14 mph70%30.01 "HgN/A
7:00 PM86 °FScattered clouds.12 mph70%29.98 "HgN/A
Weather by CustomWeather, © 2014

See weather overviewHow to use our weather pages